Flag for U.S.A. Weather past 2 weeks in Corpus Christi, Texas, U.S.A.

Now
66 °F

Passing clouds.


Feels Like: 66 °F
Forecast: 66 / 79 °F
Wind: 12 mph from South

Location: Corpus Christi International Airport

Current Time: Mar 30, 2015 at 5:50:23 AM

Latest Report: Mar 30, 2015 at 4:51 AM


Visibility: 10 mi

Pressure: 30.06 "Hg

Humidity: 93%

Dew point: 64 °F

Location of Corpus ChristiLocation

Historic Weather in Corpus Christi — Graph

°F

Corpus Christi temperature yesterday

Maximum temperature yesterday: 79 °F (at 2:51 PM)
Minimum temperature yesterday: 60 °F (at 7:51 AM)
Average temperature yesterday: 69 °F

Past Weeks' High & Low Weather Summary

 TemperatureHumidityPressure
High80 °F (Mar 28, 2:51 PM)100% (Mar 17, 4:51 AM)30.27 "Hg (Mar 17, 4:51 AM)
Low48 °F (Mar 27, 7:51 AM)26% (Mar 27, 4:51 PM)29.81 "Hg (Mar 26, 4:51 AM)
Average68 °F83%30.06 "Hg
* Reported Mar 15 4:51 AM — Mar 30 4:51 AM, Corpus Christi, Weather by CustomWeather, © 2015

Note: Actual official high and low records may vary slightly from our data, if they occured in-between our weather recording intervals... More about our weather records

Advertising

Corpus Christi weather history for previous 24 hours

 ConditionsComfort  
Time TempWeatherWind HumidityBarometerVisibility
4:51 AM
Mon, Mar 30
66 °FPassing clouds.12 mph93%30.06 "Hg10 mi
3:51 AM66 °FPassing clouds.13 mph93%30.07 "Hg10 mi
2:51 AM66 °FPassing clouds.13 mph93%30.09 "Hg10 mi
1:51 AM67 °FPassing clouds.14 mph93%30.10 "Hg10 mi
12:51 AM67 °FPassing clouds.14 mph93%30.10 "Hg10 mi
11:51 PM
Sun, Mar 29
67 °FClear.15 mph93%30.11 "Hg10 mi
10:51 PM68 °FClear.14 mph87%30.11 "Hg10 mi
9:51 PM69 °FClear.17 mph84%30.10 "Hg10 mi
8:51 PM70 °FClear.20 mph81%30.08 "Hg10 mi
7:51 PM71 °FSunny.22 mph76%30.07 "Hg10 mi
6:51 PM74 °FSunny.25 mph69%30.05 "Hg10 mi
5:51 PM76 °FSunny.28 mph67%30.05 "Hg10 mi
4:51 PM78 °FSunny.28 mph64%30.05 "Hg10 mi
3:51 PM78 °FSunny.31 mph64%30.07 "Hg10 mi
2:51 PM79 °FPassing clouds.30 mph65%30.09 "Hg10 mi
1:51 PM78 °FPassing clouds.25 mph64%30.11 "Hg10 mi
12:51 PM77 °FPassing clouds.26 mph64%30.13 "Hg10 mi
11:51 AM76 °FPassing clouds.24 mph67%30.14 "Hg10 mi
10:51 AM73 °FPassing clouds.23 mph71%30.14 "Hg10 mi
9:51 AM71 °FPassing clouds.24 mph76%30.13 "Hg10 mi
8:51 AM65 °FSunny.13 mph87%30.12 "Hg10 mi
7:51 AM60 °FClear.8 mph96%30.11 "Hg10 mi
6:51 AM61 °FClear.9 mph93%30.09 "Hg10 mi
5:51 AM62 °FClear.10 mph90%30.06 "Hg10 mi
Weather by CustomWeather, © 2015

See weather overviewHow to use our weather pages